Wind_Speed
22 19 17 10 9 8 3 2 8 10 18 17 18 13 11 9 8 10 13 13 13 13 10 14 17 19 20 24 27 29 32 35 33 21 15 10 9 10 17 15 10 5 3 8 8 12 13 14 14
21 16 11 9 8 4 5 8 10 16 19 14 8 10 8 10 11 10 9 10 10 11 13 15 17 21 23 28 32 35 36 28 19 13 16 12 11 14 14 7 5 3 5 6 12 15 14 16 17
19 15 8 8 5 4 7 11 13 14 14 10 9 8 10 8 13 12 10 12 13 14 17 21 22 23 28 31 34 29 21 19 19 19 22 15 18 15 6 4 7 1 4 9 16 16 17 17 17
24 11 5 7 4 8 8 9 8 10 14 13 13 13 13 14 14 15 17 19 21 22 23 26 28 29 30 32 23 19 21 20 22 23 19 14 14 11 6 5 4 4 7 15 19 18 19 17 19
15 12 10 3 4 2 3 4 7 13 11 11 10 11 11 14 14 14 15 18 20 20 21 20 21 19 16 14 17 17 22 23 22 20 16 10 6 1 5 3 8 15 19 23 21 21 20 21 21
19 17 9 5 5 4 4 6 8 18 22 24 22 21 21 21 20 18 14 11 9 9 8 9 9 12 12 15 20 21 18 15 13 9 6 4 6 11 17 16 20 26 29 26 25 23 23 25 22
18 5 9 4 6 8 6 14 17 21 24 29 30 31 32 35 30 34 24 18 18 17 16 19 22 22 25 26 23 22 20 14 10 9 8 13 15 18 22 21 30 33 31 30 27 24 25 24 25
13 11 5 2 5 13 13 16 17 18 24 29 33 34 37 41 41 42 43 39 31 22 21 21 22 24 25 29 29 31 27 22 19 18 20 23 24 25 28 33 35 34 33 30 27 28 28 26 25
7 7 4 12 21 17 16 20 19 21 27 31 30 32 36 37 40 41 44 44 39 29 23 22 23 19 18 27 32 32 30 29 26 23 21 28 34 37 39 37 35 37 33 29 29 31 27 27 25
7 3 12 17 18 17 18 21 23 26 22 24 25 26 30 31 36 37 41 43 43 42 33 30 27 23 24 26 31 35 32 32 31 26 23 29 38 44 44 39 38 34 30 28 26 21 20 18 18
8 14 21 17 18 15 15 19 19 18 19 18 21 22 23 26 29 33 35 40 43 42 44 42 35 29 30 31 32 27 31 34 33 32 32 35 39 43 39 37 34 31 28 27 20 16 21 19 19
16 16 17 16 19 14 14 17 17 16 15 17 18 20 23 25 27 27 30 33 34 39 42 42 42 36 35 30 29 29 29 30 33 33 34 36 38 34 32 31 26 26 21 20 18 11 7 16 14
19 18 14 9 13 12 12 11 11 14 11 12 15 16 17 19 22 25 28 29 30 32 34 38 39 39 40 39 34 28 25 24 28 26 30 29 28 27 23 23 23 22 20 14 13 7 6 9 9
16 16 11 10 8 8 10 9 6 7 8 9 11 14 16 20 22 22 22 23 25 28 28 30 33 33 37 37 36 35 28 21 20 21 19 18 20 19 15 15 13 13 16 10 1 5 6 9 7
14 14 10 8 6 5 2 4 4 1 4 5 7 11 15 18 18 20 23 22 21 21 23 25 24 26 27 30 31 30 30 28 22 17 11 12 10 9 10 8 12 7 12 14 1 4 6 10 7
11 14 12 10 12 10 10 10 9 10 10 9 8 11 14 15 15 14 19 20 20 20 17 18 19 21 22 25 27 28 24 22 22 24 20 11 8 6 5 3 5 8 11 14 6 5 8 7 9
15 16 16 16 17 15 16 20 19 17 14 12 16 17 15 13 14 14 16 16 17 17 16 13 14 16 18 21 23 22 22 17 15 14 16 15 13 9 8 4 1 2 6 8 10 13 10 10 13
18 23 23 21 22 21 20 25 26 23 18 18 22 19 17 14 14 16 17 17 19 18 14 11 12 14 18 19 22 21 16 14 14 11 13 10 12 10 10 10 11 9 5 7 12 14 13 17 17
28 27 20 23 24 23 21 25 28 26 22 22 22 18 20 17 18 20 19 21 16 20 22 15 12 14 16 14 19 18 12 15 15 8 7 10 7 6 9 8 7 8 9 11 11 11 11 8 6
24 35 32 24 19 25 26 24 21 24 25 23 21 18 21 19 21 21 21 18 20 20 24 23 18 14 17 19 23 16 11 12 16 7 6 8 12 8 8 9 7 8 10 11 12 15 14 12 11
34 32 27 29 25 21 24 27 28 26 29 27 27 26 22 25 23 21 22 23 23 24 28 26 20 20 19 18 23 23 13 17 14 13 10 12 11 12 14 12 11 11 12 13 18 20 18 14 16
42 35 35 33 31 33 28 34 31 31 30 35 28 28 25 25 25 25 22 28 28 28 27 25 20 24 22 18 22 21 13 18 15 7 14 12 14 18 16 20 18 17 15 17 18 20 21 21 19
49 47 44 43 42 41 30 34 35 29 32 38 30 32 32 31 32 36 28 34 34 33 30 28 28 33 33 27 32 23 19 16 20 18 21 22 21 21 24 26 25 24 25 28 24 24 24 23 23
54 49 49 52 46 44 46 43 44 42 37 37 34 34 36 40 40 41 43 43 39 41 39 41 40 41 36 48 42 41 32 32 28 33 34 32 30 34 37 32 32 35 33 32 33 33 33 29 24
62 61 54 54 53 57 49 50 52 51 46 50 45 44 39 39 41 44 40 43 43 43 47 50 50 49 56 53 46 41 36 31 29 33 37 42 40 42 43 40 40 42 40 36 36 40 42 38 36
67 67 66 62 65 62 57 61 63 58 56 59 59 59 54 56 54 53 54 54 55 56 55 54 58 56 57 56 54 51 49 47 41 44 44 49 52 49 47 50 52 51 49 49 40 41 43 47 49
71 72 77 76 72 73 70 71 70 68 66 66 66 65 64 65 63 62 64 65 66 67 64 65 63 57 57 53 50 53 49 45 51 53 56 60 57 57 55 54 58 61 56 55 55 54 49 51 54
71 74 75 75 78 80 79 78 76 76 75 75 73 72 70 70 70 68 68 70 69 67 64 65 58 53 52 55 55 55 56 58 59 57 54 62 65 65 65 68 64 67 70 61 67 63 59 57 57
71 74 75 77 77 78 80 81 82 81 77 76 77 77 76 74 68 65 62 65 69 70 55 47 47 53 49 55 53 55 59 62 59 57 58 62 68 72 75 71 74 72 69 71 72 74 73 70 66
63 67 68 69 72 77 80 76 79 79 77 77 77 76 73 62 60 51 39 51 58 46 38 51 51 57 57 61 62 62 62 63 58 50 70 67 69 73 79 77 74 69 71 73 76 75 79 81 83
Wind_Direction
125 129 145 157 185 207 235 209 351 318 308 299 289 279 296 312 325 308 292 288 291 287 291 294 289 294 290 293 305 304 306 308 307 309 328 322 321 309 331 321 310 321 0 19 22 26 63 56 37
108 116 158 170 153 193 268 332 322 320 318 307 282 305 326 336 322 310 299 291 307 308 294 289 287 293 290 301 304 309 310 313 310 311 312 323 300 322 319 325 9 39 38 18 41 76 69 55 40
104 127 123 137 152 229 328 327 317 311 321 308 322 332 326 315 292 291 290 291 285 281 279 282 285 292 297 304 311 319 319 322 309 297 309 299 288 309 314 302 357 59 55 62 88 86 73 60 53
141 147 193 191 255 293 301 297 305 330 327 318 324 332 315 309 304 301 294 288 287 283 278 284 287 293 302 309 322 319 317 312 309 303 294 281 274 289 276 275 307 150 113 104 104 94 78 69 62
163 208 185 153 223 235 285 344 352 340 5 28 23 11 1 357 349 336 324 312 302 294 294 298 307 311 320 339 325 328 329 322 311 300 288 275 260 179 158 162 133 129 120 113 101 92 79 77 74
182 179 142 173 63 20 39 23 63 67 62 57 53 47 43 34 29 26 25 25 20 20 25 31 36 35 20 2 4 352 340 332 320 305 287 212 156 133 133 125 122 122 120 111 104 89 81 76 72
186 141 171 108 44 58 78 99 86 76 67 64 62 62 60 57 58 53 52 53 51 58 61 67 75 60 49 36 29 25 32 37 50 76 99 118 132 140 133 121 123 122 116 112 99 88 85 81 71
207 238 288 83 77 105 105 83 77 75 71 73 71 65 58 53 52 51 50 51 53 59 69 75 70 61 59 47 46 45 45 57 68 89 107 120 127 131 126 122 123 119 114 108 101 94 84 84 80
240 252 322 105 117 117 96 87 84 86 87 82 70 59 55 50 50 51 51 50 53 56 61 57 49 39 39 54 54 50 49 51 62 78 106 121 124 122 122 126 127 121 111 105 99 90 78 74 77
191 134 116 111 112 105 98 94 87 95 81 73 69 57 58 50 47 50 50 52 49 52 54 51 48 52 52 66 54 48 49 53 60 69 90 107 117 123 127 132 123 118 115 101 94 76 62 58 73
117 135 128 103 120 113 110 97 96 89 78 66 59 53 52 50 46 47 52 49 51 49 51 54 54 52 52 54 52 53 58 61 67 77 87 100 114 123 127 126 120 120 114 100 88 95 67 63 83
129 138 145 110 133 127 121 106 98 84 70 58 50 46 43 38 38 40 47 46 45 47 48 50 52 49 48 51 44 57 59 64 72 81 90 104 115 119 122 120 119 120 116 104 95 67 61 65 84
142 146 156 149 124 130 129 117 99 82 67 52 51 41 39 31 25 29 29 38 40 43 47 46 47 48 48 50 47 51 60 62 71 82 90 94 107 114 118 122 125 124 121 116 65 46 67 68 64
163 168 163 156 178 142 140 136 129 93 56 28 23 25 18 22 20 21 22 26 30 35 41 45 47 48 45 48 47 47 51 52 61 87 92 87 96 111 111 125 124 118 125 108 97 54 345 346 318
180 189 195 163 184 210 209 147 169 292 357 354 357 4 3 353 2 6 8 11 19 28 30 31 36 42 46 43 46 44 44 50 51 49 65 66 79 101 117 144 170 173 158 166 167 73 323 330 322
203 207 214 216 225 236 258 270 276 285 288 300 320 338 337 341 343 346 349 359 2 11 25 20 20 27 33 41 33 36 44 41 42 46 41 40 61 88 81 93 142 159 179 195 221 266 314 314 312
242 216 228 228 241 238 261 270 268 275 284 297 315 316 316 327 327 323 335 341 349 1 1 17 20 24 20 23 23 16 25 38 37 35 38 34 41 45 59 50 299 191 204 234 263 262 251 251 255
232 237 227 233 237 242 249 261 264 267 277 291 301 311 318 324 338 332 326 319 326 334 346 358 7 15 13 9 8 20 20 24 9 20 29 28 15 17 24 25 18 15 335 301 296 291 276 278 279
231 223 242 238 252 252 250 255 253 261 265 278 294 296 296 311 328 331 323 317 320 322 332 326 332 344 349 359 357 11 21 357 356 349 0 5 5 17 27 19 2 356 359 336 323 317 315 297 274
223 228 242 232 241 249 254 248 247 260 271 274 279 283 284 297 310 315 309 306 309 324 318 312 308 327 335 341 345 348 345 349 348 331 295 315 327 311 309 328 324 323 324 324 324 319 323 320 316
237 237 236 224 240 250 255 231 241 254 268 264 268 260 260 287 296 302 300 299 295 300 314 304 300 310 323 336 339 339 321 325 337 318 309 277 274 289 315 304 282 282 293 307 314 322 314 309 297
229 231 243 242 238 235 244 250 245 253 247 261 263 252 265 286 288 287 287 286 288 286 290 305 294 291 290 312 327 332 321 313 304 261 280 276 294 298 296 291 279 277 271 277 279 286 296 305 293
242 242 231 237 243 244 244 249 246 260 264 254 256 252 266 274 280 280 269 277 276 278 284 286 291 295 285 282 289 303 288 276 285 281 273 272 265 260 275 281 284 280 277 279 270 270 266 273 287
237 241 242 240 239 247 249 243 237 241 257 259 250 260 263 269 274 269 271 270 271 271 276 281 285 286 279 296 284 280 279 268 264 272 267 264 263 270 268 267 268 274 274 277 272 276 276 267 266
240 245 247 241 243 242 229 232 238 243 244 251 255 248 244 257 261 266 267 270 270 277 278 280 285 286 290 295 277 279 275 264 261 252 260 260 259 261 260 267 271 274 266 262 268 279 280 275 267
248 252 252 247 249 247 245 244 247 241 242 252 258 259 260 258 266 269 268 270 269 270 273 277 293 299 289 283 283 272 284 280 261 266 255 257 255 256 257 266 267 272 269 267 265 268 274 277 273
250 252 251 252 249 249 249 249 249 251 250 253 258 261 265 268 271 273 275 278 279 279 279 285 295 293 293 292 284 286 280 273 273 277 266 262 256 256 259 269 272 273 266 261 266 271 270 267 268
254 254 254 253 254 254 253 252 252 252 252 254 255 255 258 261 264 269 273 276 280 283 288 289 293 290 285 279 280 278 274 272 275 276 267 262 262 253 258 265 265 267 268 263 266 264 267 268 266
258 261 260 259 258 258 259 257 258 258 260 261 259 259 260 264 269 275 284 282 280 277 286 285 283 279 274 275 273 273 272 274 273 271 269 262 260 259 262 264 266 265 262 261 263 264 264 266 263
263 264 266 266 265 263 264 265 265 263 263 263 264 263 263 260 269 269 297 272 274 252 254 247 250 253 255 254 256 258 260 260 263 272 267 260 262 265 264 262 262 263 265 267 268 268 268 271 269
Height
10994 10997 11000 11001 11002 11003 11003 11003 11000 10999 10997 10995 10992 10990 10988 10985 10984 10983 10982 10982 10980 10980 10980 10979 10977 10975 10971 10967 10965 10964 10962 10960 10957 10955 10954 10953 10953 10952 10952 10953 10952 10953 10955 10955 10955 10954 10953 10952 10951
10996 10998 11000 11001 11003 11004 11006 11004 11002 10998 10995 10995 10994 10991 10989 10985 10983 10983 10982 10981 10979 10978 10978 10977 10974 10970 10967 10964 10961 10959 10956 10953 10950 10949 10949 10949 10950 10950 10950 10951 10952 10953 10955 10955 10956 10955 10955 10954 10952
11000 11001 11002 11003 11004 11006 11005 11004 11001 11000 10998 10998 10995 10992 10989 10985 10983 10982 10980 10978 10976 10974 10973 10972 10969 10966 10964 10961 10958 10953 10950 10947 10945 10944 10945 10945 10947 10946 10947 10949 10951 10953 10954 10955 10956 10956 10956 10955 10954
11003 11004 11004 11004 11005 11005 11005 11004 11003 11001 10999 10997 10993 10990 10987 10984 10981 10979 10977 10974 10973 10971 10970 10968 10966 10964 10961 10958 10953 10949 10944 10941 10938 10938 10938 10939 10941 10942 10944 10947 10949 10951 10953 10954 10954 10956 10957 10957 10956
11005 11007 11006 11007 11007 11007 11006 11004 11004 11002 11000 10997 10993 10990 10988 10984 10981 10978 10975 10972 10969 10966 10966 10966 10964 10961 10959 10955 10951 10944 10938 10934 10931 10931 10932 10934 10937 10940 10942 10945 10947 10950 10953 10955 10957 10958 10959 10959 10958
11008 11008 11007 11008 11008 11008 11007 11006 11005 11004 11003 10998 10995 10993 10989 10987 10983 10978 10974 10970 10967 10965 10965 10965 10963 10961 10958 10954 10948 10941 10934 10930 10928 10927 10928 10930 10934 10936 10940 10944 10948 10951 10955 10958 10959 10960 10962 10962 10961
11009 11008 11008 11009 11009 11010 11010 11010 11007 11007 11006 11003 10999 10996 10995 10991 10986 10981 10976 10973 10970 10968 10966 10965 10964 10962 10959 10954 10949 10943 10935 10930 10927 10926 10926 10928 10931 10937 10943 10947 10950 10953 10957 10961 10964 10964 10965 10966 10966
11011 11012 11010 11010 11011 11014 11013 11012 11010 11009 11009 11007 11005 11002 10999 10994 10989 10984 10980 10977 10973 10971 10970 10969 10967 10965 10959 10958 10953 10947 10941 10935 10932 10929 10928 10927 10931 10939 10946 10951 10954 10957 10962 10965 10967 10967 10968 10968 10969
11011 11012 11013 11014 11015 11016 11017 11015 11012 11012 11012 11011 11009 11006 11003 10999 10995 10991 10987 10983 10980 10977 10976 10974 10971 10968 10965 10962 10957 10952 10948 10943 10939 10935 10933 10931 10935 10943 10949 10953 10956 10960 10966 10969 10970 10972 10971 10972 10972
11013 11014 11016 11015 11016 11019 11019 11017 11016 11015 11015 11014 11012 11011 11008 11005 11001 10998 10994 10991 10987 10983 10981 10978 10975 10972 10969 10966 10963 10959 10955 10951 10947 10944 10943 10943 10946 10948 10951 10955 10961 10966 10969 10973 10975 10975 10975 10974 10974
11016 11020 11018 11017 11019 11020 11021 11020 11019 11019 11019 11018 11016 11015 11013 11010 11006 11003 11001 10998 10994 10990 10987 10983 10981 10977 10975 10972 10971 10967 10965 10961 10957 10955 10954 10956 10959 10960 10960 10964 10969 10972 10975 10976 10977 10977 10978 10977 10977
11018 11022 11023 11020 11021 11022 11023 11023 11022 11021 11021 11021 11019 11019 11017 11015 11012 11010 11007 11004 11001 10998 10994 10991 10987 10983 10981 10979 10979 10976 10974 10972 10969 10968 10967 10967 10969 10970 10971 10974 10976 10979 10981 10981 10981 10981 10980 10980 10980
11022 11022 11024 11024 11025 11025 11025 11024 11024 11023 11023 11023 11022 11022 11021 11020 11016 11013 11011 11010 11006 11003 11000 10997 10994 10990 10988 10985 10984 10984 10982 10981 10979 10979 10980 10981 10980 10980 10981 10982 10982 10983 10984 10985 10987 10987 10985 10984 10985
11022 11023 11024 11025 11026 11027 11027 11027 11026 11026 11025 11025 11024 11023 11022 11022 11020 11017 11015 11013 11013 11009 11005 11002 11000 10998 10994 10992 10991 10989 10989 10989 10988 10988 10987 10986 10987 10987 10986 10988 10988 10988 10988 10988 10989 10990 10987 10986 10987
11023 11024 11025 11024 11027 11028 11028 11027 11027 11025 11026 11027 11026 11026 11025 11023 11021 11020 11018 11016 11014 11014 11011 11006 11004 11003 11001 10998 10998 10996 10994 10994 10992 10993 10993 10993 10992 10991 10990 10989 10990 10989 10990 10990 10990 10990 10988 10987 10987
11024 11025 11024 11025 11026 11027 11028 11028 11027 11026 11026 11025 11027 11026 11025 11024 11022 11021 11020 11019 11016 11014 11013 11011 11008 11006 11004 11003 11001 11002 11000 10999 10997 10996 10993 10993 10995 10994 10992 10990 10989 10990 10990 10990 10990 10991 10989 10987 10987
11023 11024 11022 11023 11024 11026 11027 11027 11026 11026 11026 11024 11023 11023 11023 11022 11020 11019 11019 11020 11019 11016 11013 11013 11011 11009 11008 11006 11005 11003 11002 11002 11001 11000 10998 10997 10995 10995 10994 10992 10990 10991 10992 10992 10991 10990 10990 10987 10986
11020 11021 11023 11022 11022 11023 11025 11024 11024 11024 11024 11023 11022 11021 11019 11019 11018 11017 11018 11019 11019 11018 11016 11013 11012 11010 11008 11006 11004 11003 11003 11001 11001 11000 10999 10997 10996 10994 10994 10994 10993 10992 10992 10991 10989 10989 10989 10986 10983
11016 11018 11019 11019 11020 11020 11020 11021 11021 11021 11022 11022 11023 11022 11019 11016 11016 11016 11016 11016 11015 11016 11015 11014 11013 11012 11010 11007 11004 11003 11003 11002 11002 11001 11000 10999 10998 10995 10994 10994 10994 10994 10993 10992 10991 10988 10984 10983 10982
11013 11013 11013 11013 11016 11016 11016 11017 11018 11018 11018 11020 11020 11020 11017 11016 11013 11014 11013 11012 11014 11013 11013 11012 11012 11010 11009 11008 11005 11003 11001 11000 10999 10999 10998 10997 10995 10995 10995 10995 10996 10995 10994 10993 10991 10989 10987 10984 10982
11007 11008 11008 11008 11009 11011 11012 11014 11014 11015 11016 11015 11015 11015 11014 11012 11012 11010 11010 11009 11009 11010 11009 11010 11010 11009 11007 11005 11003 11003 11002 10998 10997 10997 10996 10995 10995 10994 10994 10993 10993 10991 10991 10992 10991 10989 10986 10986 10983
10999 11000 11003 11004 11005 11006 11007 11009 11008 11007 11010 11011 11011 11009 11007 11006 11006 11005 11005 11004 11004 11007 11007 11006 11006 11005 11006 11004 11003 11002 11000 11000 10996 10995 10993 10992 10992 10991 10991 10990 10989 10987 10985 10985 10986 10986 10984 10983 10983
10991 10993 10998 10998 10999 11002 11006 11005 11003 11001 11000 11003 11006 11004 11002 11001 11001 11000 10999 10997 10999 10999 11002 11003 11002 11003 11002 11000 10999 10999 10999 10996 10995 10993 10990 10988 10987 10986 10984 10982 10983 10984 10982 10980 10977 10977 10979 10978 10978
10980 10983 10986 10988 10991 10991 11002 10996 10995 10994 10993 10995 10995 10999 10996 10994 10994 10994 10992 10992 10991 10992 10994 10995 10995 10994 10996 10995 10995 10993 10993 10991 10989 10987 10984 10981 10979 10979 10976 10977 10976 10976 10974 10972 10972 10972 10972 10971 10970
10970 10972 10976 10978 10979 10979 10990 10986 10982 10986 10990 10988 10989 10987 10987 10985 10986 10985 10984 10983 10982 10983 10984 10985 10984 10985 10987 10986 10983 10981 10982 10981 10979 10976 10975 10972 10969 10967 10967 10967 10966 10967 10967 10965 10962 10961 10962 10964 10962
10954 10955 10958 10961 10964 10969 10975 10975 10969 10976 10984 10980 10978 10976 10977 10976 10977 10975 10973 10974 10974 10976 10977 10974 10973 10972 10968 10969 10970 10970 10970 10971 10968 10966 10961 10958 10957 10956 10954 10955 10956 10957 10956 10957 10955 10954 10952 10952 10953
10936 10940 10936 10945 10949 10952 10957 10956 10960 10963 10971 10971 10966 10965 10964 10962 10963 10961 10961 10958 10958 10962 10965 10966 10965 10964 10959 10956 10955 10958 10956 10953 10952 10951 10949 10945 10944 10942 10942 10942 10943 10943 10943 10941 10941 10941 10942 10941 10939
10919 10917 10921 10926 10928 10929 10936 10941 10944 10947 10954 10957 10958 10955 10952 10951 10952 10952 10951 10951 10946 10946 10950 10952 10952 10952 10949 10944 10942 10942 10940 10938 10935 10933 10932 10930 10928 10927 10926 10926 10926 10927 10929 10928 10928 10927 10926 10926 10926
10906 10904 10906 10907 10911 10911 10912 10923 10924 10932 10935 10935 10938 10939 10938 10938 10942 10943 10944 10940 10935 10940 10945 10940 10939 10935 10935 10929 10927 10923 10921 10920 10919 10917 10915 10912 10912 10909 10910 10909 10910 10911 10910 10910 10910 10910 10910 10909 10910
10890 10889 10891 10893 10894 10893 10893 10905 10903 10910 10914 10912 10913 10915 10922 10926 10931 10938 10941 10912 10921 10926 10941 10924 10926 10921 10917 10911 10908 10904 10901 10900 10900 10907 10895 10893 10892 10892 10893 10892 10893 10892 10893 10893 10892 10892 10892 10891 10890